G4KVI Weather Reports


time (UTC)temp
C
wind
direction
speed
KPH
gust
KPH
rain 1hr
cm
rain 24hr
cm
rain mn
cm
humidity
%
barometer
mb
20260508033503 8 97 0.0 1.6 0.00 0.00 0.00 84 1017.0
20260508033003 8 98 1.6 1.6 0.00 0.00 0.00 84 1017.2
20260508032503 8 99 1.6 1.6 0.00 0.00 0.00 84 1017.1
20260508032003 8 99 1.6 1.6 0.00 0.00 0.00 84 1017.1
20260508031503 8 99 1.6 1.6 0.00 0.00 0.00 83 1017.2
20260508030503 8 99 1.6 3.2 0.00 0.00 0.00 83 1017.2
20260508030004 8 99 1.6 3.2 0.00 0.00 0.00 83 1017.3
20260508025503 8 98 1.6 3.2 0.00 0.00 0.00 83 1017.2
20260508025003 9 100 1.6 3.2 0.00 0.00 0.00 82 1017.1
20260508024503 9 101 1.6 3.2 0.00 0.00 0.00 82 1017.1
20260508024003 8 100 1.6 3.2 0.00 0.00 0.00 82 1017.3
20260508023503 8 100 1.6 3.2 0.00 0.00 0.00 82 1017.1
20260508023003 9 99 1.6 1.6 0.00 0.00 0.00 81 1017.2
20260508022503 9 99 1.6 3.2 0.00 0.00 0.00 81 1017.4
20260508022003 9 98 1.6 3.2 0.00 0.00 0.00 80 1017.2
20260508021503 9 100 1.6 4.8 0.00 0.00 0.00 80 1017.3
20260508021003 9 104 1.6 4.8 0.00 0.00 0.00 80 1017.1
20260508020503 9 109 1.6 3.2 0.00 0.00 0.00 79 1017.2
20260508020003 9 109 0.0 1.6 0.00 0.00 0.00 78 1017.3
20260508015503 9 109 1.6 3.2 0.00 0.00 0.00 78 1017.2
20260508015003 9 108 1.6 3.2 0.00 0.00 0.00 77 1017.2
20260508014504 9 109 1.6 3.2 0.00 0.00 0.00 76 1017.2
20260508014003 9 111 1.6 3.2 0.00 0.00 0.00 76 1017.2
20260508013503 9 113 1.6 1.6 0.00 0.00 0.00 75 1017.2
20260508013003 9 113 1.6 1.6 0.00 0.00 0.00 75 1017.4
20260508012503 9 113 0.0 1.6 0.00 0.00 0.00 74 1017.4
20260508012003 9 113 0.0 1.6 0.00 0.00 0.00 74 1017.2
20260508011503 9 0 0.0 0.0 0.00 0.00 0.00 73 1017.4
20260508011003 10 109 0.0 1.6 0.00 0.00 0.00 73 1017.4
20260508010503 10 107 1.6 3.2 0.00 0.00 0.00 73 1017.2
20260508010003 10 106 1.6 3.2 0.00 0.00 0.00 72 1017.4
20260508005503 10 107 1.6 3.2 0.00 0.00 0.00 72 1017.2
20260508005003 10 107 1.6 1.6 0.00 0.00 0.00 72 1017.3
20260508004503 10 107 1.6 3.2 0.00 0.00 0.00 71 1017.3
20260508004003 10 108 1.6 3.2 0.00 0.00 0.00 71 1017.5
20260508003503 10 124 1.6 3.2 0.00 0.00 0.00 71 1017.5
20260508003003 10 141 1.6 4.8 0.00 0.00 0.00 70 1017.2
20260508002503 10 132 1.6 4.8 0.00 0.00 0.00 70 1017.2
20260508002003 10 109 1.6 1.6 0.00 0.00 0.00 70 1017.6
20260508001503 10 100 1.6 1.6 0.00 0.00 0.00 69 1017.3
20260508001003 10 99 1.6 3.2 0.00 0.00 0.00 69 1017.4
20260508000503 10 99 1.6 3.2 0.00 0.00 0.00 69 1017.4
20260508000003 10 103 1.6 3.2 0.00 0.00 0.00 68 1017.7
20260507235503 10 108 1.6 4.8 0.00 0.00 0.00 68 1017.3
20260507235003 10 122 3.2 4.8 0.00 0.00 0.00 67 1017.6
20260507234503 10 129 3.2 6.4 0.00 0.00 0.00 67 1017.5
20260507234003 10 121 3.2 6.4 0.00 0.00 0.00 67 1017.5
20260507233503 10 124 1.6 9.7 0.00 0.00 0.00 67 1017.4
20260507233003 10 132 1.6 9.7 0.00 0.00 0.00 67 1017.4
20260507232503 10 126 1.6 4.8 0.00 0.00 0.00 67 1017.5
20260507232003 10 117 3.2 4.8 0.00 0.00 0.00 67 1017.5
20260507231503 10 110 1.6 4.8 0.00 0.00 0.00 68 1017.4
20260507231003 10 115 1.6 1.6 0.00 0.00 0.00 69 1017.4
20260507230503 10 119 1.6 1.6 0.00 0.00 0.00 69 1017.6
20260507230004 10 120 0.0 1.6 0.00 0.00 0.00 71 1017.4
20260507225503 10 121 0.0 1.6 0.00 0.00 0.00 72 1017.5
20260507225003 10 121 1.6 1.6 0.00 0.00 0.00 73 1017.7
20260507224504 10 121 0.0 1.6 0.00 0.00 0.00 73 1017.7
20260507224003 10 121 0.0 1.6 0.00 0.00 0.00 72 1017.6
20260507223503 10 121 0.0 1.6 0.00 0.00 0.00 72 1017.7
20260507223003 10 123 1.6 1.6 0.00 0.00 0.00 72 1017.6
20260507222503 10 124 1.6 1.6 0.00 0.00 0.00 71 1017.6
20260507222003 10 124 1.6 1.6 0.00 0.00 0.00 69 1017.5
20260507221503 10 124 1.6 1.6 0.00 0.00 0.00 69 1017.6
20260507221003 10 125 0.0 1.6 0.00 0.00 0.00 69 1017.7
20260507220503 10 125 0.0 1.6 0.00 0.00 0.00 70 1017.7
20260507220003 10 125 0.0 1.6 0.00 0.00 0.00 71 1017.9
20260507215503 10 125 0.0 1.6 0.00 0.00 0.00 71 1017.8
20260507215003 10 125 0.0 1.6 0.00 0.00 0.00 71 1017.6
20260507214503 10 125 0.0 1.6 0.00 0.00 0.00 71 1017.7
20260507214003 10 125 0.0 1.6 0.00 0.00 0.00 71 1017.7
20260507213503 10 0 0.0 0.0 0.00 0.00 0.00 71 1017.8
20260507213003 10 0 0.0 0.0 0.00 0.00 0.00 70 1017.6
20260507212503 10 0 0.0 0.0 0.00 0.00 0.00 70 1017.7
20260507212003 10 0 0.0 0.0 0.00 0.00 0.00 70 1017.7
20260507211503 10 0 0.0 0.0 0.00 0.00 0.00 70 1017.8
20260507211003 10 0 0.0 0.0 0.00 0.00 0.00 71 1017.6
20260507210503 11 0 0.0 0.0 0.00 0.00 0.00 70 1017.4
20260507210003 11 0 0.0 0.0 0.00 0.00 0.00 69 1017.5
20260507205503 11 0 0.0 0.0 0.00 0.00 0.00 68 1017.4
20260507205003 11 0 0.0 0.0 0.00 0.00 0.00 68 1017.2
20260507204503 11 0 0.0 0.0 0.00 0.00 0.00 67 1017.4
20260507204003 11 0 0.0 0.0 0.00 0.00 0.00 68 1017.4
20260507203503 11 0 0.0 0.0 0.00 0.00 0.00 68 1017.3
20260507203003 11 0 0.0 0.0 0.00 0.00 0.00 68 1017.2
20260507202503 11 0 0.0 0.0 0.00 0.00 0.00 66 1017.2
20260507202003 11 0 0.0 0.0 0.00 0.00 0.00 66 1017.3
20260507201503 11 0 0.0 0.0 0.00 0.00 0.00 66 1016.9
20260507201003 11 0 0.0 0.0 0.00 0.00 0.00 65 1017.3
20260507200503 11 0 0.0 0.0 0.00 0.00 0.00 64 1017.2
20260507200003 11 0 0.0 0.0 0.00 0.00 0.00 64 1017.0
20260507195503 11 0 0.0 0.0 0.00 0.00 0.00 63 1017.0
20260507195003 11 0 0.0 0.0 0.00 0.00 0.00 63 1017.0
20260507194503 12 0 0.0 0.0 0.00 0.00 0.00 62 1016.8
20260507194003 12 0 0.0 0.0 0.00 0.00 0.00 62 1016.9
20260507193503 12 0 0.0 0.0 0.00 0.00 0.00 61 1017.0
20260507193003 12 0 0.0 0.0 0.00 0.00 0.00 61 1016.8
20260507192503 12 125 0.0 1.6 0.00 0.00 0.00 60 1016.9
20260507192003 12 125 0.0 1.6 0.00 0.00 0.00 60 1016.8
20260507191503 12 0 0.0 0.0 0.00 0.00 0.00 60 1016.9
20260507191003 12 0 0.0 0.0 0.00 0.00 0.00 59 1016.8
20260507190504 13 0 0.0 0.0 0.00 0.00 0.00 58 1016.7
20260507190005 13 0 0.0 0.0 0.00 0.00 0.00 58 1016.6
20260507185504 13 142 0.0 1.6 0.00 0.00 0.00 57 1016.7
20260507185004 13 142 0.0 1.6 0.00 0.00 0.00 57 1016.6
20260507184504 13 142 0.0 1.6 0.00 0.00 0.00 56 1016.6
20260507184004 13 142 0.0 1.6 0.00 0.00 0.00 55 1016.9
20260507183504 13 0 0.0 0.0 0.00 0.00 0.00 55 1016.5
20260507183004 14 141 0.0 1.6 0.00 0.00 0.00 55 1016.6
20260507182504 14 141 0.0 1.6 0.00 0.00 0.00 54 1016.5
20260507182004 14 142 0.0 1.6 0.00 0.00 0.00 54 1016.6
20260507181504 14 140 0.0 3.2 0.00 0.00 0.00 54 1016.6
20260507181004 14 134 0.0 3.2 0.00 0.00 0.00 53 1016.4
20260507180504 14 129 0.0 1.6 0.00 0.00 0.00 53 1016.6
20260507180004 14 0 0.0 0.0 0.00 0.00 0.00 53 1016.6
20260507175504 14 127 0.0 3.2 0.00 0.00 0.00 54 1016.6
20260507175004 14 120 0.0 3.2 0.00 0.00 0.00 53 1016.6
20260507174504 13 124 1.6 3.2 0.00 0.00 0.00 55 1016.6
20260507174004 13 116 1.6 3.2 0.00 0.00 0.00 59 1016.5
20260507173504 13 97 1.6 3.2 0.00 0.00 0.00 61 1016.5
20260507173004 13 92 1.6 4.8 0.00 0.00 0.00 61 1016.6
20260507172504 13 103 3.2 6.4 0.00 0.00 0.00 62 1016.6
20260507172004 14 117 1.6 6.4 0.00 0.00 0.00 59 1016.6
20260507171504 14 144 1.6 4.8 0.00 0.00 0.00 55 1016.6
20260507171004 14 136 0.0 3.2 0.00 0.00 0.00 55 1016.6
20260507170504 14 141 1.6 3.2 0.00 0.00 0.00 55 1016.6
20260507170004 14 137 1.6 3.2 0.00 0.00 0.00 55 1016.7
20260507165504 14 124 0.0 3.2 0.00 0.00 0.00 54 1016.7
20260507165004 14 96 0.0 1.6 0.00 0.00 0.00 54 1016.6
20260507164504 14 92 0.0 4.8 0.00 0.00 0.00 54 1016.7
20260507164004 14 117 0.0 4.8 0.00 0.00 0.00 54 1016.6
20260507163504 14 159 1.6 3.2 0.00 0.00 0.00 55 1016.7
20260507163005 13 160 1.6 3.2 0.00 0.00 0.00 55 1016.6
20260507162504 13 157 0.0 3.2 0.00 0.00 0.00 56 1016.5
20260507162004 13 145 0.0 1.6 0.00 0.00 0.00 58 1016.6
20260507161504 13 145 0.0 3.2 0.00 0.00 0.00 59 1016.5
20260507161004 13 143 1.6 4.8 0.00 0.00 0.00 60 1016.7
20260507160504 13 146 1.6 4.8 0.00 0.00 0.00 60 1016.6
20260507160004 13 157 1.6 3.2 0.00 0.00 0.00 60 1016.8
20260507155504 13 162 1.6 3.2 0.00 0.00 0.00 60 1016.8
20260507155004 13 137 3.2 6.4 0.00 0.00 0.00 59 1016.6
20260507154504 13 127 3.2 6.4 0.00 0.00 0.00 59 1016.7
20260507154004 13 124 3.2 6.4 0.00 0.00 0.00 58 1016.8
20260507153504 13 123 3.2 6.4 0.00 0.00 0.00 58 1016.6
20260507153004 13 127 1.6 4.8 0.00 0.00 0.00 58 1016.7
20260507152504 13 127 3.2 6.4 0.00 0.00 0.00 57 1016.8
20260507152004 13 121 3.2 6.4 0.00 0.00 0.00 58 1016.7
20260507151504 13 130 3.2 6.4 0.00 0.00 0.00 58 1016.8
20260507151004 13 137 3.2 9.7 0.00 0.00 0.00 58 1016.8
20260507150504 13 141 4.8 9.7 0.00 0.00 0.00 58 1016.9
20260507150004 13 152 4.8 9.7 0.00 0.00 0.00 58 1016.9
20260507145504 13 144 3.2 9.7 0.00 0.00 0.00 57 1016.6
20260507145004 14 139 4.8 12.9 0.00 0.00 0.00 57 1016.7
20260507144504 13 144 4.8 12.9 0.00 0.00 0.00 58 1016.7
20260507144004 14 150 4.8 12.9 0.00 0.00 0.00 57 1016.7
20260507143504 14 157 6.4 14.5 0.00 0.00 0.00 57 1016.8
20260507143004 14 152 4.8 14.5 0.00 0.00 0.00 56 1016.8
20260507142504 14 153 4.8 12.9 0.00 0.00 0.00 57 1016.9
20260507142004 14 144 4.8 12.9 0.00 0.00 0.00 57 1017.0
20260507141504 14 136 4.8 12.9 0.00 0.00 0.00 56 1017.0
20260507141004 14 156 6.4 12.9 0.00 0.00 0.00 58 1016.7
20260507140504 14 155 6.4 14.5 0.00 0.00 0.00 58 1016.9
20260507140004 15 145 6.4 14.5 0.00 0.00 0.00 57 1017.0
20260507135504 14 145 6.4 16.1 0.00 0.00 0.00 58 1017.0
20260507135004 13 149 6.4 16.1 0.00 0.00 0.00 59 1017.1
20260507134504 13 162 6.4 16.1 0.00 0.00 0.00 59 1017.2
20260507134004 13 164 6.4 16.1 0.00 0.00 0.00 58 1017.1
20260507133504 14 148 6.4 16.1 0.00 0.00 0.00 59 1017.2
20260507133004 14 147 6.4 16.1 0.00 0.00 0.00 59 1017.1
20260507132504 14 155 6.4 16.1 0.00 0.00 0.00 58 1017.0
20260507132004 14 159 6.4 14.5 0.00 0.00 0.00 57 1017.2
20260507131504 15 161 6.4 16.1 0.00 0.00 0.00 57 1017.3
20260507131004 15 162 4.8 16.1 0.00 0.00 0.00 57 1017.0
20260507130504 14 172 4.8 12.9 0.00 0.00 0.00 57 1017.0
20260507130004 13 180 4.8 12.9 0.00 0.00 0.00 58 1017.3
20260507125504 14 207 3.2 12.9 0.00 0.00 0.00 58 1017.1
20260507125004 13 202 1.6 12.9 0.00 0.00 0.00 58 1017.1
20260507124504 13 149 1.6 4.8 0.00 0.00 0.00 58 1017.1
20260507124004 13 154 1.6 4.8 0.00 0.00 0.00 58 1017.2
20260507123504 13 152 3.2 4.8 0.00 0.00 0.00 57 1017.2
20260507123004 14 150 1.6 9.7 0.00 0.00 0.00 56 1017.2
20260507122504 14 156 3.2 11.3 0.00 0.00 0.00 57 1017.2
20260507122004 14 160 4.8 11.3 0.00 0.00 0.00 55 1017.3
20260507121504 14 158 4.8 12.9 0.00 0.00 0.00 55 1017.2
20260507121004 14 153 4.8 12.9 0.00 0.00 0.00 56 1017.3
20260507120504 14 158 4.8 12.9 0.00 0.00 0.00 55 1017.3
20260507120004 15 177 1.6 11.3 0.00 0.00 0.00 54 1017.3
20260507115504 15 187 1.6 6.4 0.00 0.00 0.00 52 1017.6
20260507115004 15 179 3.2 11.3 0.00 0.00 0.00 52 1017.4
20260507114504 15 178 3.2 11.3 0.00 0.00 0.00 52 1017.5
20260507114004 15 162 3.2 11.3 0.00 0.00 0.00 53 1017.7
20260507113504 15 160 3.2 11.3 0.00 0.00 0.00 52 1017.4
20260507113004 15 171 3.2 11.3 0.00 0.00 0.00 52 1017.4
20260507112504 15 175 3.2 11.3 0.00 0.00 0.00 50 1017.4
20260507112004 15 162 1.6 9.7 0.00 0.00 0.00 52 1017.2
20260507111504 15 155 3.2 11.3 0.00 0.00 0.00 52 1017.3
20260507111004 15 166 3.2 14.5 0.00 0.00 0.00 49 1017.3
20260507110504 15 166 4.8 14.5 0.00 0.00 0.00 51 1017.5
20260507110004 14 153 4.8 12.9 0.00 0.00 0.00 52 1017.5
20260507105504 14 154 4.8 11.3 0.00 0.00 0.00 50 1017.5
20260507105004 15 159 3.2 11.3 0.00 0.00 0.00 48 1017.4
20260507104504 15 163 4.8 11.3 0.00 0.00 0.00 50 1017.6
20260507104004 16 170 4.8 11.3 0.00 0.00 0.00 47 1017.6
20260507103504 16 156 4.8 12.9 0.00 0.00 0.00 48 1017.6
20260507103004 15 147 6.4 12.9 0.00 0.00 0.00 51 1017.5
20260507102504 15 147 8.0 14.5 0.00 0.00 0.00 49 1017.5
20260507102004 15 131 8.0 14.5 0.00 0.00 0.00 52 1017.6
20260507101504 15 134 8.0 14.5 0.00 0.00 0.00 54 1017.5
20260507101004 15 146 6.4 12.9 0.00 0.00 0.00 56 1017.8
20260507100504 15 144 4.8 12.9 0.00 0.00 0.00 57 1017.8
20260507100004 15 159 4.8 16.1 0.00 0.00 0.00 55 1017.7
20260507095504 15 151 6.4 16.1 0.00 0.00 0.00 57 1017.6
20260507095004 13 134 6.4 14.5 0.00 0.00 0.00 60 1017.8
20260507094504 13 133 6.4 14.5 0.00 0.00 0.00 59 1017.7
20260507094004 13 147 6.4 12.9 0.00 0.00 0.00 60 1017.5
20260507093504 13 155 6.4 12.9 0.00 0.00 0.00 62 1017.5
20260507093004 13 158 4.8 11.3 0.00 0.00 0.00 60 1017.6
20260507092504 13 158 4.8 14.5 0.00 0.00 0.00 62 1017.4
20260507092004 13 141 4.8 14.5 0.00 0.00 0.00 62 1017.5
20260507091504 12 127 4.8 11.3 0.00 0.00 0.00 67 1017.7
20260507091004 12 113 4.8 11.3 0.00 0.00 0.00 68 1017.9
20260507090504 12 105 4.8 11.3 0.00 0.00 0.00 72 1017.7
20260507090005 12 106 4.8 12.9 0.00 0.00 0.00 72 1017.7
20260507085504 11 104 6.4 12.9 0.00 0.00 0.00 73 1018.0
20260507085004 11 107 4.8 9.7 0.00 0.00 0.00 73 1017.7
20260507084504 11 104 6.4 11.3 0.00 0.00 0.00 74 1017.8
20260507084004 11 106 4.8 11.3 0.00 0.00 0.00 74 1017.8
20260507083504 11 113 4.8 9.7 0.00 0.00 0.00 75 1017.8
20260507083004 11 125 4.8 9.7 0.00 0.00 0.00 75 1018.0
20260507082504 11 129 4.8 11.3 0.00 0.00 0.00 75 1017.9
20260507082004 10 116 4.8 11.3 0.00 0.00 0.00 75 1017.9
20260507081503 10 108 4.8 9.7 0.00 0.00 0.00 77 1017.6
20260507081003 10 105 4.8 9.7 0.00 0.00 0.00 76 1017.8
20260507080503 10 111 3.2 9.7 0.00 0.00 0.00 77 1017.9
20260507080004 10 117 4.8 11.3 0.00 0.00 0.00 78 1018.0
20260507075504 9 123 4.8 11.3 0.00 0.00 0.00 78 1017.8
20260507075004 9 125 3.2 9.7 0.00 0.00 0.00 79 1017.9
20260507074504 9 121 3.2 9.7 0.00 0.00 0.00 79 1017.9
20260507074004 9 115 3.2 9.7 0.00 0.00 0.00 79 1017.9
20260507073503 8 121 4.8 11.3 0.00 0.00 0.00 79 1017.7
20260507073004 8 125 4.8 11.3 0.00 0.00 0.00 80 1017.7
20260507072503 8 124 3.2 9.7 0.00 0.00 0.00 80 1017.7
20260507072004 8 117 3.2 6.4 0.00 0.00 0.00 81 1017.7
20260507071504 8 124 1.6 4.8 0.00 0.00 0.00 82 1017.7
20260507071003 8 133 1.6 3.2 0.00 0.00 0.00 83 1017.5
20260507070504 7 145 3.2 4.8 0.00 0.00 0.00 83 1017.6
20260507070007 7 150 3.2 4.8 0.00 0.00 0.00 83 1017.7
20260507065503 7 121 1.6 4.8 0.00 0.00 0.00 83 1017.7
20260507065004 7 101 3.2 6.4 0.00 0.00 0.00 83 1017.7
20260507064504 7 102 3.2 6.4 0.00 0.00 0.00 84 1017.6
20260507064004 7 117 3.2 9.7 0.00 0.00 0.00 84 1017.5
20260507063503 7 108 4.8 11.3 0.00 0.00 0.00 84 1017.6
20260507063004 7 101 3.2 11.3 0.00 0.00 0.00 84 1017.5
20260507062503 7 108 3.2 4.8 0.00 0.00 0.00 85 1017.3
20260507062003 7 109 1.6 4.8 0.00 0.00 0.00 85 1017.6
20260507061503 7 94 1.6 3.2 0.00 0.00 0.00 85 1017.5
20260507061004 7 97 1.6 3.2 0.00 0.00 0.00 85 1017.2
20260507060503 7 109 1.6 4.8 0.00 0.00 0.00 85 1017.6
20260507060004 6 115 3.2 4.8 0.00 0.00 0.00 85 1017.2
20260507055503 6 125 3.2 4.8 0.00 0.00 0.00 85 1017.3
20260507055004 7 139 1.6 4.8 0.00 0.00 0.00 85 1017.4
20260507054504 6 120 3.2 9.7 0.00 0.00 0.00 85 1017.5
20260507054003 6 110 3.2 9.7 0.00 0.00 0.00 85 1017.2
20260507053503 6 107 3.2 9.7 0.00 0.00 0.00 85 1017.2
20260507053004 6 105 1.6 3.2 0.00 0.00 0.00 84 1017.2
20260507052503 7 101 1.6 4.8 0.00 0.00 0.00 84 1017.3
20260507052003 6 105 3.2 4.8 0.00 0.00 0.00 85 1017.1
20260507051503 6 115 3.2 4.8 0.00 0.00 0.00 85 1017.3
20260507051003 6 111 3.2 4.8 0.00 0.00 0.00 85 1017.4
20260507050503 6 105 3.2 4.8 0.00 0.00 0.00 85 1017.6
20260507050003 6 103 3.2 4.8 0.00 0.00 0.00 84 1017.1
20260507045503 6 106 3.2 6.4 0.00 0.00 0.00 84 1017.1
20260507045003 6 108 3.2 6.4 0.00 0.00 0.00 84 1017.0
20260507044503 6 107 3.2 4.8 0.00 0.00 0.00 84 1017.2
20260507044003 6 106 3.2 6.4 0.00 0.00 0.00 84 1017.1
20260507043503 6 105 3.2 6.4 0.00 0.00 0.00 84 1017.0
20260507043003 6 111 3.2 6.4 0.00 0.00 0.00 84 1017.0
20260507042503 6 117 1.6 4.8 0.00 0.00 0.00 84 1016.9
20260507042003 6 124 1.6 4.8 0.00 0.00 0.00 84 1017.1
20260507041503 6 123 3.2 4.8 0.00 0.00 0.00 84 1016.9
20260507041003 6 122 1.6 4.8 0.00 0.00 0.00 84 1016.9
20260507040503 6 122 1.6 4.8 0.00 0.00 0.00 84 1017.3
20260507040004 6 103 1.6 4.8 0.00 0.00 0.00 84 1017.1
20260507035504 6 101 3.2 4.8 0.00 0.00 0.00 84 1017.4
20260507035003 6 103 3.2 6.4 0.00 0.00 0.00 83 1017.3
20260507034503 6 105 3.2 6.4 0.00 0.00 0.00 83 1017.2
20260507034003 6 105 3.2 6.4 0.00 0.00 0.00 83 1017.1